Dewpoint
9 10 10 11 10 11 11 11 11 11 12 12 12 12 10 10 9 10 11 10 10 11 10 10 8 3 8 9 6 -5 -6 5 7 8 9 9 8 8 7 3 2 -5 -12
11 9 8 9 10 10 10 10 11 11 11 11 12 12 11 10 10 10 10 10 11 11 11 10 10 7 8 8 1 -6 -9 -2 4 4 2 -0 4 6 6 -2 -9 -8 5
11 10 9 9 10 10 10 10 10 11 11 11 12 12 12 11 11 10 10 9 11 11 11 11 10 8 8 8 3 1 -5 -7 -1 -1 -7 -8 -7 -4 -4 3 7 8 9
10 9 9 10 10 11 11 11 11 12 12 11 12 12 12 11 11 11 10 10 11 11 11 11 11 9 6 8 8 9 7 -0 -5 -6 -5 -7 -4 7 10 10 10 10 11
10 9 9 10 10 11 11 11 11 11 11 12 12 12 12 11 11 11 10 10 10 10 11 11 11 10 1 4 8 9 10 9 6 9 10 9 9 10 10 11 11 11 11
10 9 9 10 10 11 11 10 10 10 10 11 11 12 12 12 11 11 10 10 10 9 10 11 10 10 6 7 10 10 10 10 10 10 11 11 10 11 11 11 10 10 9
11 11 11 12 12 10 10 10 11 11 11 11 11 12 11 11 11 10 10 10 9 9 9 10 11 10 9 8 10 10 9 10 11 10 11 11 11 11 11 10 9 9 8
11 11 11 11 11 11 11 10 11 11 11 11 11 11 10 10 10 10 10 9 8 9 11 10 10 10 10 8 9 10 10 10 11 10 11 11 11 10 9 8 8 8 8
10 10 10 11 11 11 11 10 11 10 10 10 10 10 9 9 9 9 9 10 9 9 10 9 11 11 11 9 9 9 10 11 11 11 11 11 10 9 9 8 8 8 8
9 9 9 10 10 10 10 10 10 10 10 10 10 10 9 9 8 8 9 9 9 9 9 8 9 11 11 11 10 10 11 10 11 11 11 10 9 9 9 9 8 8 8
7 7 8 9 9 9 10 10 10 10 10 10 9 9 9 9 9 9 8 9 10 10 10 10 10 10 10 11 11 11 11 11 11 10 10 9 9 9 8 8 7 7 7
6 7 7 8 8 8 8 7 8 10 10 10 9 9 9 9 9 9 9 9 10 10 9 10 9 9 9 10 10 10 9 10 10 7 7 8 9 8 7 7 6 6 5
5 6 6 7 7 7 8 7 8 8 8 9 9 9 9 9 9 9 8 8 9 9 9 9 10 9 9 10 9 9 9 8 8 8 8 8 6 5 3 4 4 4 5
3 4 5 6 6 6 6 6 7 7 8 8 8 7 8 8 8 9 9 9 8 8 8 9 8 9 10 10 9 9 9 9 9 9 8 8 7 7 6 5 2 3 4
2 2 3 4 5 5 5 5 5 5 6 6 6 6 7 6 6 7 7 8 8 7 7 7 7 7 7 8 10 9 9 9 9 8 8 8 7 7 6 4 3 2 3
-1 0 1 2 3 3 3 4 4 4 4 4 5 6 5 5 5 5 5 5 6 7 7 7 7 7 7 8 9 8 8 8 7 7 7 7 6 6 4 3 1 1 1
-3 -2 -0 -0 1 1 2 2 3 3 3 3 3 4 4 4 4 4 4 4 5 5 6 6 5 6 6 6 7 7 7 6 6 6 6 6 6 5 4 3 2 2 2
-5 -4 -3 -2 -2 -1 -0 0 2 2 2 2 2 2 3 3 3 4 4 4 4 4 4 4 5 5 4 4 4 5 5 5 6 5 6 5 5 5 4 3 3 2 1
-6 -6 -5 -4 -4 -3 -2 -2 -1 -0 -0 -0 0 1 1 2 2 2 3 3 3 3 3 4 4 4 4 4 4 4 4 5 5 5 4 5 5 4 4 4 3 1 -1
-7 -7 -7 -6 -6 -5 -5 -4 -3 -3 -2 -2 -2 -1 -1 -0 0 0 1 1 2 2 2 3 3 3 3 3 3 3 3 2 3 4 4 3 2 2 2 2 2 0 -1
-9 -9 -9 -9 -8 -7 -6 -5 -5 -5 -5 -4 -4 -4 -4 -3 -3 -2 -2 -1 -1 -0 -0 -0 0 1 1 1 1 1 1 1 1 1 2 2 2 1 1 0 -0 -3 -10
-10 -10 -10 -10 -10 -9 -8 -7 -7 -6 -6 -6 -6 -6 -6 -5 -5 -4 -4 -3 -3 -2 -2 -2 -2 -2 -2 -2 -1 -1 -0 -0 -1 -0 -0 -0 -0 -0 -0 -0 -1 -1 -1
-11 -11 -10 -10 -11 -11 -10 -9 -8 -8 -7 -7 -7 -7 -7 -7 -6 -6 -6 -5 -5 -5 -4 -4 -4 -4 -4 -3 -3 -3 -3 -3 -2 -2 -2 -2 -2 -2 -2 -3 -3 -3 -5
-11 -11 -11 -11 -11 -12 -10 -10 -10 -9 -10 -10 -11 -11 -11 -11 -11 -9 -8 -8 -7 -7 -7 -6 -6 -6 -6 -5 -5 -5 -4 -4 -4 -4 -4 -4 -4 -4 -3 -3 -3 -4 -6
-23 -15 -13 -13 -12 -12 -13 -12 -11 -11 -10 -10 -9 -9 -9 -10 -10 -10 -11 -11 -11 -11 -11 -11 -10 -9 -8 -7 -7 -6 -6 -6 -6 -6 -6 -6 -5 -5 -5 -5 -5 -5 -7
-33 -33 -32 -29 -20 -16 -14 -13 -14 -14 -12 -12 -11 -10 -10 -10 -11 -11 -11 -10 -11 -11 -10 -10 -11 -11 -12 -13 -13 -10 -8 -7 -7 -7 -7 -7 -7 -7 -7 -7 -6 -7 -8
Wind_Speed
25 24 24 25 24 25 26 27 27 27 28 31 35 40 42 40 36 29 24 28 26 25 24 22 23 25 23 21 19 21 30 31 28 28 27 25 22 21 20 17 16 16 17
24 24 23 24 25 25 25 26 27 28 29 31 35 38 46 44 40 37 31 29 29 27 26 24 23 25 25 24 22 24 28 31 30 27 25 24 23 22 20 19 20 21 21
23 23 23 23 24 24 25 27 27 27 28 30 34 40 45 43 40 38 34 30 29 29 27 25 23 23 28 27 26 26 26 29 30 27 26 25 25 24 24 24 23 22 21
23 23 22 22 22 23 24 25 25 27 29 31 34 39 42 46 39 38 36 35 30 28 28 28 24 23 30 30 30 28 27 28 29 29 28 28 29 27 24 23 23 25 25
23 22 21 21 22 23 23 23 22 24 30 39 42 43 44 39 41 40 37 36 35 31 29 30 28 25 29 33 32 32 30 30 30 30 28 28 29 27 28 27 26 27 24
25 23 21 19 20 22 23 22 21 16 24 33 40 39 34 44 44 39 35 35 37 38 32 31 31 29 31 35 36 35 34 34 32 33 31 33 33 31 31 30 28 26 22
27 24 22 21 20 20 22 22 24 23 27 33 34 36 36 32 27 31 32 36 38 36 34 35 34 34 34 34 38 38 37 39 37 36 34 37 34 34 31 27 23 22 21
31 26 27 24 23 23 27 26 29 29 27 29 30 32 17 22 26 31 34 33 34 35 29 36 37 36 37 39 40 40 42 42 41 40 38 40 38 30 26 25 22 21 22
29 27 28 28 30 27 30 30 32 33 31 32 32 19 11 9 24 31 33 32 37 38 35 27 35 37 38 43 48 46 55 43 43 45 46 40 32 29 28 23 22 24 25
22 25 24 27 35 34 32 29 31 32 31 35 34 32 20 13 10 11 27 34 30 29 30 33 35 39 43 45 52 50 40 40 46 45 37 32 31 28 26 23 21 25 25
22 22 22 26 24 29 32 31 31 32 31 32 34 33 25 21 17 14 19 27 29 24 27 24 20 11 18 44 34 31 50 41 41 34 26 22 24 23 19 18 20 20 20
17 20 22 25 25 26 29 26 33 36 35 32 33 33 32 28 24 22 19 29 27 27 26 27 27 23 19 19 28 26 16 23 26 25 26 28 25 21 19 20 20 19 19
15 17 19 20 22 23 24 27 30 29 32 32 33 34 34 31 27 28 21 24 30 29 26 29 32 30 27 30 33 28 23 25 28 31 31 29 26 22 21 20 17 17 22
15 16 17 18 20 20 22 25 28 30 27 31 29 30 29 28 23 23 27 25 22 25 26 27 32 37 40 43 45 39 38 32 37 35 31 29 26 24 21 25 18 20 22
16 15 16 19 20 22 22 23 23 24 25 27 25 24 25 24 17 13 16 21 23 23 26 22 20 32 35 40 48 41 34 37 37 30 35 33 29 28 26 24 22 24 25
16 16 16 17 20 21 22 22 23 23 25 25 24 23 21 17 16 13 13 10 16 18 23 23 26 29 32 33 32 32 34 37 31 32 34 33 33 30 27 24 25 26 28
16 16 17 17 18 21 21 20 22 21 20 20 21 21 21 21 20 18 15 13 11 15 16 19 22 25 28 29 40 42 42 37 35 32 32 34 33 34 30 31 31 32 31
17 17 16 18 18 18 20 22 22 20 19 19 19 18 18 17 17 16 16 17 17 17 15 11 17 16 17 22 24 34 34 34 37 34 34 37 36 38 34 34 32 31 30
19 19 19 18 18 19 19 19 21 21 19 19 18 16 16 16 14 14 16 17 18 17 16 19 17 15 14 20 23 23 25 37 39 38 33 40 42 40 36 33 27 29 27
20 20 22 19 18 19 20 20 20 21 20 17 16 15 13 12 12 12 14 15 16 15 15 16 17 18 20 20 23 25 23 20 29 38 34 39 38 36 35 34 29 27 27
24 22 23 22 19 19 19 19 20 20 19 19 18 16 13 11 10 11 9 9 11 11 11 13 14 16 17 19 21 24 25 25 26 29 34 35 35 33 32 29 27 21 23
24 22 23 24 21 19 18 19 20 21 22 22 22 21 17 16 14 11 10 8 7 8 9 9 9 11 13 14 17 21 25 28 30 30 30 28 29 30 30 30 27 28 33
20 20 21 22 24 19 16 17 17 19 20 20 20 18 16 16 13 14 12 10 10 9 8 8 7 7 8 9 10 12 16 20 26 29 28 29 29 27 27 26 25 25 24
9 11 13 15 16 15 17 17 16 18 19 20 20 18 16 15 14 12 11 12 12 11 9 7 5 4 4 3 5 6 9 11 14 18 22 21 26 29 31 31 29 28 23
8 8 8 10 10 13 13 14 15 17 18 22 24 23 17 13 13 11 10 11 12 11 10 9 9 7 5 4 1 2 4 7 10 13 16 19 22 23 25 28 29 30 25
8 8 9 9 11 11 7 11 12 14 16 17 19 19 13 12 10 10 9 10 10 9 7 6 5 5 5 6 5 4 2 2 6 8 12 14 17 16 16 22 24 24 23
Wind_Direction
211 213 211 211 211 209 210 210 211 213 214 215 215 214 201 200 211 212 198 199 201 201 208 198 195 202 201 201 199 192 185 184 181 180 183 183 172 166 164 163 161 154 146
213 214 215 214 214 215 216 218 219 219 222 223 220 217 203 207 203 205 206 201 205 207 209 206 198 202 204 203 198 190 183 186 185 184 183 181 177 176 174 168 160 150 142
219 216 216 216 217 219 220 222 223 224 225 227 227 223 217 206 206 206 207 207 209 208 212 211 210 204 206 203 196 190 184 185 188 187 181 175 170 168 163 156 150 145 140
218 219 217 218 218 219 220 223 225 227 230 230 227 228 222 202 205 206 204 204 209 213 213 215 215 216 206 203 194 194 192 184 182 178 172 168 165 160 163 160 157 151 154
217 217 218 223 222 222 221 222 225 229 234 230 223 214 209 209 205 205 204 204 208 211 215 215 221 217 210 202 200 198 194 187 181 174 175 172 166 169 168 162 158 160 161
222 219 220 221 222 214 216 209 215 195 215 217 203 199 198 203 203 199 205 212 212 211 215 221 219 217 210 206 202 201 196 192 186 182 183 179 173 169 165 165 165 168 173
230 226 219 219 219 216 209 206 195 179 172 176 184 190 199 203 209 216 222 222 214 210 216 223 222 218 214 215 209 206 204 198 194 189 184 182 175 174 172 173 178 185 195
219 229 220 220 218 214 207 206 207 203 207 204 190 193 192 212 220 223 219 218 216 218 232 228 227 223 222 215 215 214 213 204 199 191 183 180 178 179 183 188 196 207 216
225 220 227 219 219 217 210 211 217 222 220 207 208 196 179 206 221 229 220 220 221 229 236 242 232 225 225 220 217 215 214 202 201 190 182 181 184 192 202 209 216 216 221
221 219 220 221 225 220 221 221 221 227 223 214 205 204 205 203 181 197 218 227 230 239 240 249 239 235 233 229 230 222 214 206 170 179 181 183 197 203 212 224 226 220 223
230 219 213 223 223 224 227 220 222 221 212 213 215 213 204 206 209 191 195 196 214 215 194 180 186 204 237 216 205 212 189 168 176 182 186 201 217 216 208 216 217 225 226
227 222 222 222 227 222 222 228 224 216 212 214 219 215 224 221 218 216 205 199 203 208 219 218 227 236 234 214 190 188 175 190 198 207 206 207 203 206 211 210 215 213 194
199 207 207 211 214 219 228 218 222 227 211 217 222 223 227 228 216 209 216 211 211 217 217 224 228 230 235 224 244 241 226 208 205 203 205 213 213 210 212 207 203 195 185
194 195 200 203 208 208 213 217 215 215 222 224 225 224 221 223 224 218 220 224 208 207 211 223 221 202 210 215 227 229 227 222 215 214 216 218 223 226 207 196 208 204 189
185 187 194 197 198 209 202 207 205 210 216 216 215 216 219 228 231 226 229 224 217 203 203 203 205 214 201 191 197 195 199 208 211 221 220 222 219 209 211 207 226 207 201
164 176 178 184 183 191 195 200 200 195 195 197 204 212 213 212 212 216 223 229 233 220 206 204 196 195 188 180 187 204 211 215 211 198 196 201 204 206 210 214 217 217 216
142 153 164 170 175 174 182 188 190 191 197 199 198 204 212 213 204 204 209 212 213 218 210 214 213 204 207 194 198 199 202 199 199 203 202 209 208 208 206 208 208 209 213
124 129 139 150 154 160 161 172 169 172 184 190 187 190 194 196 201 201 200 205 213 219 217 205 217 231 232 217 201 193 197 199 200 200 205 213 218 212 210 207 210 216 223
113 117 119 124 130 139 147 147 150 155 159 163 167 171 178 184 190 190 195 198 202 210 215 220 218 218 230 229 221 205 197 198 202 202 207 199 203 209 210 215 225 228 228
106 108 108 109 116 122 128 131 134 138 142 146 149 154 159 172 182 189 199 206 206 204 206 210 212 210 214 219 220 219 213 199 192 201 201 195 192 195 198 206 219 231 231
95 98 102 93 102 108 113 120 122 124 125 126 123 124 125 136 149 162 170 178 187 192 203 207 205 201 203 206 208 212 208 206 199 195 196 201 209 208 203 206 211 219 235
100 97 96 95 88 86 101 111 122 124 122 117 116 115 115 117 112 125 134 148 158 160 173 184 193 199 205 212 211 212 213 212 217 212 211 208 210 216 222 222 222 226 232
108 101 99 100 90 88 97 98 104 112 114 113 112 111 114 107 113 117 122 127 125 130 144 159 172 183 190 201 211 216 217 221 223 224 224 223 223 225 226 230 236 232 223
129 117 103 94 93 94 111 108 109 108 112 112 108 102 103 105 104 105 106 111 108 108 109 119 133 150 157 173 196 213 223 228 231 236 238 242 240 242 245 245 243 240 227
135 130 129 119 103 94 121 121 123 121 120 118 112 108 101 99 105 102 111 111 108 101 102 99 102 103 103 104 133 201 237 241 242 246 245 250 254 257 256 253 246 235 223
129 134 137 142 131 110 100 140 141 134 131 128 128 118 98 87 102 114 112 106 110 112 119 115 106 102 106 108 99 104 119 224 258 275 273 264 265 262 267 260 254 241 239
Height
1470 1474 1477 1481 1483 1487 1490 1493 1497 1500 1504 1507 1511 1514 1517 1521 1527 1534 1537 1540 1543 1545 1547 1550 1552 1554 1557 1559 1561 1563 1565 1568 1571 1573 1576 1578 1580 1582 1584 1586 1588 1590 1591
1466 1470 1474 1478 1481 1484 1488 1490 1493 1496 1500 1504 1507 1510 1509 1517 1523 1527 1533 1537 1540 1543 1546 1549 1551 1554 1555 1558 1561 1563 1564 1568 1570 1573 1576 1578 1580 1583 1585 1587 1589 1591 1593
1464 1466 1470 1474 1477 1480 1484 1487 1489 1493 1496 1499 1503 1506 1510 1512 1518 1524 1530 1534 1538 1541 1544 1547 1550 1553 1555 1557 1560 1562 1564 1567 1570 1573 1575 1577 1580 1583 1585 1588 1590 1592 1595
1459 1463 1465 1470 1473 1477 1480 1483 1486 1489 1491 1493 1496 1501 1507 1504 1513 1519 1524 1529 1534 1538 1542 1545 1548 1551 1553 1556 1559 1562 1564 1566 1569 1572 1575 1577 1580 1583 1586 1589 1591 1594 1595
1455 1458 1462 1465 1469 1472 1475 1478 1481 1483 1486 1487 1490 1493 1501 1504 1510 1515 1520 1525 1530 1534 1538 1543 1545 1549 1551 1554 1557 1560 1563 1566 1569 1572 1575 1577 1580 1583 1585 1588 1591 1593 1597
1451 1453 1457 1461 1464 1468 1471 1474 1478 1480 1482 1485 1487 1493 1495 1502 1506 1509 1515 1521 1525 1529 1534 1539 1543 1546 1550 1552 1555 1558 1561 1565 1568 1571 1574 1577 1579 1582 1585 1588 1591 1593 1596
1447 1449 1453 1456 1460 1464 1469 1473 1475 1478 1481 1484 1487 1490 1495 1498 1501 1508 1513 1517 1521 1526 1530 1534 1539 1542 1546 1550 1553 1556 1559 1563 1566 1569 1572 1576 1580 1582 1584 1589 1592 1593 1594
1443 1445 1450 1453 1456 1461 1466 1470 1474 1476 1481 1483 1486 1490 1492 1498 1500 1506 1510 1514 1518 1522 1526 1529 1534 1537 1541 1545 1549 1553 1556 1559 1563 1567 1569 1572 1577 1581 1585 1587 1591 1593 1594
1438 1442 1445 1449 1452 1457 1462 1467 1471 1474 1477 1480 1484 1489 1492 1495 1499 1502 1505 1509 1514 1518 1521 1524 1528 1532 1535 1539 1544 1547 1547 1552 1556 1560 1564 1569 1575 1579 1583 1586 1590 1591 1593
1434 1438 1442 1445 1451 1454 1458 1463 1468 1471 1473 1478 1481 1484 1489 1493 1496 1498 1501 1506 1510 1513 1517 1519 1521 1526 1528 1533 1536 1540 1535 1549 1546 1554 1557 1565 1572 1577 1580 1583 1587 1589 1591
1432 1434 1439 1441 1445 1450 1454 1456 1463 1467 1470 1475 1480 1482 1486 1490 1493 1493 1497 1500 1505 1508 1511 1510 1516 1521 1524 1523 1526 1532 1533 1536 1546 1553 1558 1565 1572 1575 1577 1580 1583 1586 1588
1431 1433 1434 1439 1442 1447 1451 1451 1456 1462 1465 1471 1476 1480 1483 1486 1490 1493 1495 1497 1500 1505 1509 1510 1516 1518 1523 1525 1527 1533 1532 1539 1546 1552 1557 1564 1568 1571 1574 1577 1579 1583 1585
1427 1429 1430 1434 1438 1442 1445 1450 1454 1457 1460 1466 1472 1475 1479 1481 1486 1489 1491 1493 1497 1501 1504 1508 1512 1515 1519 1521 1525 1529 1533 1539 1546 1551 1556 1560 1564 1568 1569 1574 1576 1581 1584
1424 1427 1429 1431 1435 1440 1442 1447 1448 1452 1456 1462 1466 1471 1473 1478 1481 1483 1486 1489 1494 1497 1500 1502 1508 1510 1514 1518 1521 1526 1532 1537 1543 1547 1552 1556 1560 1562 1564 1569 1572 1578 1582
1423 1427 1427 1429 1432 1437 1441 1444 1447 1450 1453 1459 1462 1466 1469 1474 1477 1480 1484 1487 1488 1492 1497 1499 1505 1508 1511 1512 1514 1520 1528 1535 1540 1544 1548 1550 1554 1558 1561 1565 1567 1575 1577
1422 1424 1426 1428 1430 1434 1438 1442 1445 1447 1452 1455 1459 1463 1465 1470 1475 1479 1482 1483 1487 1489 1494 1497 1500 1505 1508 1510 1515 1521 1526 1532 1537 1539 1544 1546 1549 1553 1559 1562 1565 1570 1573
1421 1424 1424 1427 1430 1431 1435 1440 1442 1446 1449 1453 1456 1459 1462 1466 1472 1476 1478 1480 1486 1490 1491 1496 1500 1502 1506 1508 1512 1515 1520 1525 1532 1538 1541 1544 1547 1550 1555 1558 1563 1565 1569
1423 1426 1427 1428 1430 1432 1434 1440 1439 1441 1447 1451 1455 1458 1461 1466 1469 1471 1474 1477 1484 1488 1490 1493 1499 1502 1507 1511 1512 1513 1517 1523 1529 1535 1539 1541 1545 1549 1552 1555 1560 1563 1565
1429 1430 1430 1431 1434 1435 1437 1438 1438 1442 1446 1451 1453 1455 1459 1464 1467 1469 1473 1477 1480 1482 1487 1489 1495 1498 1502 1509 1513 1513 1516 1519 1523 1528 1532 1535 1541 1546 1548 1552 1556 1559 1560
1431 1434 1436 1437 1439 1440 1441 1441 1442 1442 1446 1451 1454 1455 1459 1464 1466 1470 1473 1476 1476 1480 1484 1486 1490 1494 1500 1504 1509 1514 1518 1521 1522 1526 1529 1530 1535 1540 1542 1547 1550 1555 1558
1437 1439 1440 1442 1446 1447 1444 1444 1445 1447 1450 1453 1452 1456 1462 1466 1466 1469 1471 1475 1475 1475 1481 1485 1489 1491 1497 1501 1504 1509 1513 1519 1522 1523 1525 1528 1533 1537 1538 1541 1545 1550 1555
1443 1446 1445 1446 1449 1449 1448 1451 1452 1451 1453 1453 1455 1461 1466 1466 1469 1469 1470 1475 1476 1476 1479 1484 1488 1493 1496 1500 1501 1505 1509 1514 1519 1520 1523 1525 1529 1532 1536 1538 1542 1545 1549
1452 1453 1452 1451 1454 1455 1456 1456 1456 1456 1456 1458 1461 1463 1466 1468 1470 1471 1472 1476 1474 1478 1481 1485 1489 1494 1496 1497 1500 1503 1507 1510 1513 1517 1520 1522 1525 1527 1530 1533 1537 1539 1542
1456 1456 1455 1455 1457 1459 1460 1461 1461 1460 1464 1465 1465 1468 1468 1471 1474 1474 1477 1479 1479 1482 1485 1487 1491 1494 1497 1498 1499 1502 1505 1507 1511 1514 1517 1519 1521 1524 1526 1529 1531 1533 1535
1458 1457 1458 1458 1461 1463 1464 1465 1466 1468 1469 1470 1469 1469 1472 1475 1476 1478 1482 1481 1482 1486 1489 1491 1494 1497 1498 1498 1500 1502 1504 1508 1510 1512 1514 1515 1516 1518 1521 1522 1525 1527 1530
1458 1459 1460 1462 1464 1465 1468 1468 1469 1468 1472 1473 1469 1472 1478 1476 1478 1481 1481 1484 1486 1488 1492 1494 1496 1498 1500 1500 1501 1503 1504 1507 1510 1511 1513 1515 1515 1516 1518 1518 1519 1522 1525